<?xml version="1.0" encoding="UTF-8" standalone="no" ?>
<gpx xmlns="http://www.topografix.com/GPX/1/1" xmlns:xsi="http://www.w3.org/2001/XMLSchema-instance" xsi:schemaLocation="http://www.topografix.com/GPX/1/1 http://www.topografix.com/GPX/1/1/gpx.xsd" version="1.1" creator="VisuGPX - https://www.visugpx.com">
  <metadata>
    <name>nocturne 10 2015</name>
    <desc><![CDATA[circuit nocturne allo ouine rayon vert]]></desc>
  </metadata>
  <trk>
    <name><![CDATA[option]]></name>
    <trkseg>
      <trkpt lat="45.55466" lon="0.69044">
        <ele>269</ele>
        <time>2013-01-27T09:01:25Z</time>
      </trkpt>
      <trkpt lat="45.55501" lon="0.69074">
        <ele>270</ele>
        <time>2013-01-27T09:01:38Z</time>
      </trkpt>
      <trkpt lat="45.55535" lon="0.69102">
        <ele>272</ele>
        <time>2013-01-27T09:01:50Z</time>
      </trkpt>
      <trkpt lat="45.55567" lon="0.6913">
        <ele>272</ele>
        <time>2013-01-27T09:01:59Z</time>
      </trkpt>
      <trkpt lat="45.5561" lon="0.69167">
        <ele>276</ele>
        <time>2013-01-27T09:02:10Z</time>
      </trkpt>
      <trkpt lat="45.55637" lon="0.69196">
        <ele>277</ele>
        <time>2013-01-27T09:02:19Z</time>
      </trkpt>
      <trkpt lat="45.55667" lon="0.69228">
        <ele>279</ele>
        <time>2013-01-27T09:02:30Z</time>
      </trkpt>
      <trkpt lat="45.557" lon="0.69275">
        <ele>279</ele>
        <time>2013-01-27T09:02:45Z</time>
      </trkpt>
      <trkpt lat="45.5572" lon="0.69314">
        <ele>279</ele>
        <time>2013-01-27T09:02:57Z</time>
      </trkpt>
      <trkpt lat="45.55733" lon="0.69365">
        <ele>280</ele>
        <time>2013-01-27T09:03:09Z</time>
      </trkpt>
      <trkpt lat="45.55747" lon="0.69434">
        <ele>280</ele>
        <time>2013-01-27T09:03:23Z</time>
      </trkpt>
      <trkpt lat="45.55759" lon="0.69496">
        <ele>280</ele>
        <time>2013-01-27T09:03:38Z</time>
      </trkpt>
      <trkpt lat="45.5577" lon="0.69538">
        <ele>280</ele>
        <time>2013-01-27T09:03:50Z</time>
      </trkpt>
      <trkpt lat="45.55776" lon="0.69553">
        <ele>280</ele>
        <time>2013-01-27T09:03:53Z</time>
      </trkpt>
      <trkpt lat="45.55799" lon="0.69603">
        <ele>278</ele>
        <time>2013-01-27T09:04:03Z</time>
      </trkpt>
      <trkpt lat="45.55816" lon="0.69651">
        <ele>276</ele>
        <time>2013-01-27T09:04:13Z</time>
      </trkpt>
      <trkpt lat="45.55831" lon="0.69714">
        <ele>275</ele>
        <time>2013-01-27T09:04:25Z</time>
      </trkpt>
      <trkpt lat="45.55842" lon="0.6976">
        <ele>274</ele>
        <time>2013-01-27T09:04:35Z</time>
      </trkpt>
      <trkpt lat="45.55847" lon="0.69788">
        <ele>273</ele>
        <time>2013-01-27T09:04:40Z</time>
      </trkpt>
      <trkpt lat="45.55848" lon="0.69802">
        <ele>273</ele>
        <time>2013-01-27T09:04:42Z</time>
      </trkpt>
      <trkpt lat="45.55857" lon="0.69833">
        <ele>273</ele>
        <time>2013-01-27T09:04:46Z</time>
      </trkpt>
      <trkpt lat="45.55882" lon="0.69875">
        <ele>268</ele>
        <time>2013-01-27T09:04:53Z</time>
      </trkpt>
      <trkpt lat="45.55879" lon="0.69891">
        <ele>268</ele>
        <time>2013-01-27T09:04:58Z</time>
      </trkpt>
      <trkpt lat="45.5587" lon="0.69895">
        <ele>268</ele>
        <time>2013-01-27T09:05:01Z</time>
      </trkpt>
      <trkpt lat="45.5585" lon="0.69898">
        <ele>268</ele>
        <time>2013-01-27T09:05:08Z</time>
      </trkpt>
      <trkpt lat="45.5583" lon="0.69909">
        <ele>266</ele>
        <time>2013-01-27T09:05:19Z</time>
      </trkpt>
      <trkpt lat="45.55828" lon="0.69912">
        <ele>266</ele>
        <time>2013-01-27T09:05:20Z</time>
      </trkpt>
      <trkpt lat="45.55821" lon="0.69923">
        <ele>263</ele>
        <time>2013-01-27T09:05:25Z</time>
      </trkpt>
      <trkpt lat="45.55815" lon="0.69929">
        <ele>262</ele>
        <time>2013-01-27T09:05:28Z</time>
      </trkpt>
      <trkpt lat="45.5581" lon="0.69935">
        <ele>261</ele>
        <time>2013-01-27T09:05:31Z</time>
      </trkpt>
      <trkpt lat="45.55801" lon="0.69929">
        <ele>261</ele>
        <time>2013-01-27T09:05:38Z</time>
      </trkpt>
      <trkpt lat="45.55802" lon="0.69923">
        <ele>261</ele>
        <time>2013-01-27T09:05:43Z</time>
      </trkpt>
      <trkpt lat="45.55803" lon="0.6992">
        <ele>261</ele>
        <time>2013-01-27T09:05:49Z</time>
      </trkpt>
      <trkpt lat="45.55793" lon="0.69918">
        <ele>260</ele>
        <time>2013-01-27T09:05:56Z</time>
      </trkpt>
      <trkpt lat="45.55788" lon="0.69918">
        <ele>260</ele>
        <time>2013-01-27T09:05:59Z</time>
      </trkpt>
      <trkpt lat="45.55786" lon="0.69917">
        <ele>260</ele>
        <time>2013-01-27T09:06:01Z</time>
      </trkpt>
      <trkpt lat="45.55781" lon="0.69911">
        <ele>263</ele>
        <time>2013-01-27T09:06:13Z</time>
      </trkpt>
      <trkpt lat="45.55779" lon="0.6991">
        <ele>263</ele>
        <time>2013-01-27T09:06:15Z</time>
      </trkpt>
      <trkpt lat="45.55768" lon="0.69914">
        <ele>261</ele>
        <time>2013-01-27T09:06:23Z</time>
      </trkpt>
      <trkpt lat="45.55762" lon="0.69921">
        <ele>258</ele>
        <time>2013-01-27T09:06:26Z</time>
      </trkpt>
      <trkpt lat="45.55758" lon="0.69929">
        <ele>258</ele>
        <time>2013-01-27T09:06:41Z</time>
      </trkpt>
      <trkpt lat="45.55759" lon="0.69932">
        <ele>258</ele>
        <time>2013-01-27T09:07:02Z</time>
      </trkpt>
      <trkpt lat="45.55762" lon="0.69926">
        <ele>258</ele>
        <time>2013-01-27T09:07:25Z</time>
      </trkpt>
      <trkpt lat="45.55767" lon="0.69947">
        <ele>258</ele>
        <time>2013-01-27T09:07:36Z</time>
      </trkpt>
      <trkpt lat="45.55756" lon="0.69983">
        <ele>255</ele>
        <time>2013-01-27T09:07:44Z</time>
      </trkpt>
      <trkpt lat="45.55741" lon="0.69999">
        <ele>252</ele>
        <time>2013-01-27T09:07:49Z</time>
      </trkpt>
      <trkpt lat="45.55734" lon="0.70008">
        <ele>251</ele>
        <time>2013-01-27T09:07:51Z</time>
      </trkpt>
      <trkpt lat="45.55722" lon="0.70026">
        <ele>250</ele>
        <time>2013-01-27T09:07:57Z</time>
      </trkpt>
      <trkpt lat="45.55706" lon="0.70029">
        <ele>250</ele>
        <time>2013-01-27T09:08:03Z</time>
      </trkpt>
      <trkpt lat="45.55683" lon="0.70026">
        <ele>251</ele>
        <time>2013-01-27T09:08:12Z</time>
      </trkpt>
      <trkpt lat="45.55675" lon="0.70033">
        <ele>251</ele>
        <time>2013-01-27T09:08:16Z</time>
      </trkpt>
      <trkpt lat="45.55666" lon="0.70051">
        <ele>254</ele>
        <time>2013-01-27T09:08:24Z</time>
      </trkpt>
      <trkpt lat="45.55653" lon="0.70056">
        <ele>254</ele>
        <time>2013-01-27T09:08:33Z</time>
      </trkpt>
      <trkpt lat="45.5564" lon="0.70041">
        <ele>255</ele>
        <time>2013-01-27T09:08:41Z</time>
      </trkpt>
      <trkpt lat="45.55634" lon="0.70031">
        <ele>256</ele>
        <time>2013-01-27T09:08:44Z</time>
      </trkpt>
      <trkpt lat="45.55631" lon="0.70028">
        <ele>256</ele>
        <time>2013-01-27T09:08:46Z</time>
      </trkpt>
      <trkpt lat="45.55608" lon="0.70006">
        <ele>258</ele>
        <time>2013-01-27T09:08:59Z</time>
      </trkpt>
      <trkpt lat="45.55583" lon="0.69985">
        <ele>263</ele>
        <time>2013-01-27T09:09:12Z</time>
      </trkpt>
      <trkpt lat="45.55575" lon="0.69984">
        <ele>263</ele>
        <time>2013-01-27T09:09:15Z</time>
      </trkpt>
      <trkpt lat="45.55551" lon="0.69977">
        <ele>264</ele>
        <time>2013-01-27T09:09:24Z</time>
      </trkpt>
      <trkpt lat="45.5553" lon="0.6996">
        <ele>265</ele>
        <time>2013-01-27T09:09:32Z</time>
      </trkpt>
      <trkpt lat="45.55532" lon="0.69939">
        <ele>265</ele>
        <time>2013-01-27T09:09:42Z</time>
      </trkpt>
      <trkpt lat="45.55543" lon="0.69913">
        <ele>261</ele>
        <time>2013-01-27T09:09:53Z</time>
      </trkpt>
      <trkpt lat="45.55542" lon="0.69911">
        <ele>262</ele>
        <time>2013-01-27T09:09:54Z</time>
      </trkpt>
      <trkpt lat="45.55524" lon="0.69888">
        <ele>263</ele>
        <time>2013-01-27T09:10:05Z</time>
      </trkpt>
      <trkpt lat="45.555" lon="0.69866">
        <ele>268</ele>
        <time>2013-01-27T09:10:17Z</time>
      </trkpt>
      <trkpt lat="45.55495" lon="0.69873">
        <ele>268</ele>
        <time>2013-01-27T09:10:24Z</time>
      </trkpt>
      <trkpt lat="45.55495" lon="0.69876">
        <ele>268</ele>
        <time>2013-01-27T09:10:26Z</time>
      </trkpt>
      <trkpt lat="45.55494" lon="0.699">
        <ele>269</ele>
        <time>2013-01-27T09:10:36Z</time>
      </trkpt>
      <trkpt lat="45.55492" lon="0.69911">
        <ele>268</ele>
        <time>2013-01-27T09:10:40Z</time>
      </trkpt>
      <trkpt lat="45.55486" lon="0.6993">
        <ele>271</ele>
        <time>2013-01-27T09:10:51Z</time>
      </trkpt>
      <trkpt lat="45.55487" lon="0.69949">
        <ele>272</ele>
        <time>2013-01-27T09:10:55Z</time>
      </trkpt>
      <trkpt lat="45.55488" lon="0.69954">
        <ele>272</ele>
        <time>2013-01-27T09:10:56Z</time>
      </trkpt>
      <trkpt lat="45.55502" lon="0.69961">
        <ele>267</ele>
        <time>2013-01-27T09:11:04Z</time>
      </trkpt>
      <trkpt lat="45.55505" lon="0.69964">
        <ele>267</ele>
        <time>2013-01-27T09:11:06Z</time>
      </trkpt>
      <trkpt lat="45.55507" lon="0.69968">
        <ele>267</ele>
        <time>2013-01-27T09:11:08Z</time>
      </trkpt>
      <trkpt lat="45.5551" lon="0.69973">
        <ele>267</ele>
        <time>2013-01-27T09:11:11Z</time>
      </trkpt>
      <trkpt lat="45.5551" lon="0.69987">
        <ele>268</ele>
        <time>2013-01-27T09:11:20Z</time>
      </trkpt>
      <trkpt lat="45.55505" lon="0.6999">
        <ele>269</ele>
        <time>2013-01-27T09:11:25Z</time>
      </trkpt>
      <trkpt lat="45.55501" lon="0.69997">
        <ele>271</ele>
        <time>2013-01-27T09:11:31Z</time>
      </trkpt>
      <trkpt lat="45.55492" lon="0.7001">
        <ele>273</ele>
        <time>2013-01-27T09:11:40Z</time>
      </trkpt>
      <trkpt lat="45.55487" lon="0.70013">
        <ele>273</ele>
        <time>2013-01-27T09:11:44Z</time>
      </trkpt>
      <trkpt lat="45.55484" lon="0.70013">
        <ele>273</ele>
        <time>2013-01-27T09:11:46Z</time>
      </trkpt>
      <trkpt lat="45.5548" lon="0.70013">
        <ele>273</ele>
        <time>2013-01-27T09:11:49Z</time>
      </trkpt>
      <trkpt lat="45.55472" lon="0.70009">
        <ele>273</ele>
        <time>2013-01-27T09:11:55Z</time>
      </trkpt>
      <trkpt lat="45.55466" lon="0.70018">
        <ele>273</ele>
        <time>2013-01-27T09:12:02Z</time>
      </trkpt>
      <trkpt lat="45.55458" lon="0.70023">
        <ele>274</ele>
        <time>2013-01-27T09:12:08Z</time>
      </trkpt>
      <trkpt lat="45.55458" lon="0.70033">
        <ele>274</ele>
        <time>2013-01-27T09:12:21Z</time>
      </trkpt>
      <trkpt lat="45.55459" lon="0.70036">
        <ele>274</ele>
        <time>2013-01-27T09:12:30Z</time>
      </trkpt>
      <trkpt lat="45.55474" lon="0.70049">
        <ele>273</ele>
        <time>2013-01-27T09:12:40Z</time>
      </trkpt>
      <trkpt lat="45.55469" lon="0.70088">
        <ele>270</ele>
        <time>2013-01-27T09:12:49Z</time>
      </trkpt>
      <trkpt lat="45.55468" lon="0.70103">
        <ele>269</ele>
        <time>2013-01-27T09:12:55Z</time>
      </trkpt>
      <trkpt lat="45.55467" lon="0.70106">
        <ele>269</ele>
        <time>2013-01-27T09:12:56Z</time>
      </trkpt>
      <trkpt lat="45.55458" lon="0.70118">
        <ele>269</ele>
        <time>2013-01-27T09:13:01Z</time>
      </trkpt>
      <trkpt lat="45.55454" lon="0.70121">
        <ele>269</ele>
        <time>2013-01-27T09:13:03Z</time>
      </trkpt>
      <trkpt lat="45.55443" lon="0.70129">
        <ele>269</ele>
        <time>2013-01-27T09:13:12Z</time>
      </trkpt>
      <trkpt lat="45.55443" lon="0.70139">
        <ele>269</ele>
        <time>2013-01-27T09:13:33Z</time>
      </trkpt>
      <trkpt lat="45.55442" lon="0.70139">
        <ele>269</ele>
        <time>2013-01-27T09:13:37Z</time>
      </trkpt>
      <trkpt lat="45.55437" lon="0.7015">
        <ele>268</ele>
        <time>2013-01-27T09:13:43Z</time>
      </trkpt>
      <trkpt lat="45.55436" lon="0.70157">
        <ele>268</ele>
        <time>2013-01-27T09:13:46Z</time>
      </trkpt>
      <trkpt lat="45.55439" lon="0.70173">
        <ele>263</ele>
        <time>2013-01-27T09:13:51Z</time>
      </trkpt>
      <trkpt lat="45.55445" lon="0.70187">
        <ele>262</ele>
        <time>2013-01-27T09:14:00Z</time>
      </trkpt>
      <trkpt lat="45.55444" lon="0.70198">
        <ele>261</ele>
        <time>2013-01-27T09:14:19Z</time>
      </trkpt>
      <trkpt lat="45.55446" lon="0.70199">
        <ele>261</ele>
        <time>2013-01-27T09:14:21Z</time>
      </trkpt>
      <trkpt lat="45.55453" lon="0.70204">
        <ele>260</ele>
        <time>2013-01-27T09:14:27Z</time>
      </trkpt>
      <trkpt lat="45.55457" lon="0.70207">
        <ele>260</ele>
        <time>2013-01-27T09:14:32Z</time>
      </trkpt>
      <trkpt lat="45.55458" lon="0.70211">
        <ele>260</ele>
        <time>2013-01-27T09:14:34Z</time>
      </trkpt>
      <trkpt lat="45.55461" lon="0.70219">
        <ele>259</ele>
        <time>2013-01-27T09:14:39Z</time>
      </trkpt>
      <trkpt lat="45.55466" lon="0.70232">
        <ele>258</ele>
        <time>2013-01-27T09:14:47Z</time>
      </trkpt>
      <trkpt lat="45.55466" lon="0.70234">
        <ele>258</ele>
        <time>2013-01-27T09:14:49Z</time>
      </trkpt>
      <trkpt lat="45.55466" lon="0.70246">
        <ele>257</ele>
        <time>2013-01-27T09:15:01Z</time>
      </trkpt>
      <trkpt lat="45.55464" lon="0.7025">
        <ele>257</ele>
        <time>2013-01-27T09:15:12Z</time>
      </trkpt>
      <trkpt lat="45.55468" lon="0.70258">
        <ele>251</ele>
        <time>2013-01-27T09:15:26Z</time>
      </trkpt>
      <trkpt lat="45.55472" lon="0.70263">
        <ele>250</ele>
        <time>2013-01-27T09:15:28Z</time>
      </trkpt>
      <trkpt lat="45.55475" lon="0.70271">
        <ele>250</ele>
        <time>2013-01-27T09:15:32Z</time>
      </trkpt>
      <trkpt lat="45.55476" lon="0.70285">
        <ele>249</ele>
        <time>2013-01-27T09:15:37Z</time>
      </trkpt>
      <trkpt lat="45.55478" lon="0.70292">
        <ele>249</ele>
        <time>2013-01-27T09:15:40Z</time>
      </trkpt>
      <trkpt lat="45.55481" lon="0.70294">
        <ele>248</ele>
        <time>2013-01-27T09:15:43Z</time>
      </trkpt>
      <trkpt lat="45.55487" lon="0.70299">
        <ele>248</ele>
        <time>2013-01-27T09:15:50Z</time>
      </trkpt>
      <trkpt lat="45.5551" lon="0.70295">
        <ele>243</ele>
        <time>2013-01-27T09:16:03Z</time>
      </trkpt>
      <trkpt lat="45.55513" lon="0.70292">
        <ele>243</ele>
        <time>2013-01-27T09:16:05Z</time>
      </trkpt>
      <trkpt lat="45.55539" lon="0.70276">
        <ele>243</ele>
        <time>2013-01-27T09:16:17Z</time>
      </trkpt>
      <trkpt lat="45.55565" lon="0.70265">
        <ele>243</ele>
        <time>2013-01-27T09:16:29Z</time>
      </trkpt>
      <trkpt lat="45.55598" lon="0.70245">
        <ele>244</ele>
        <time>2013-01-27T09:16:42Z</time>
      </trkpt>
      <trkpt lat="45.55625" lon="0.70204">
        <ele>245</ele>
        <time>2013-01-27T09:16:56Z</time>
      </trkpt>
      <trkpt lat="45.55631" lon="0.70168">
        <ele>246</ele>
        <time>2013-01-27T09:17:06Z</time>
      </trkpt>
      <trkpt lat="45.55635" lon="0.70134">
        <ele>250</ele>
        <time>2013-01-27T09:17:13Z</time>
      </trkpt>
      <trkpt lat="45.55636" lon="0.7013">
        <ele>251</ele>
        <time>2013-01-27T09:17:14Z</time>
      </trkpt>
      <trkpt lat="45.55635" lon="0.7012">
        <ele>251</ele>
        <time>2013-01-27T09:17:19Z</time>
      </trkpt>
      <trkpt lat="45.55635" lon="0.70108">
        <ele>251</ele>
        <time>2013-01-27T09:17:25Z</time>
      </trkpt>
      <trkpt lat="45.55634" lon="0.70097">
        <ele>252</ele>
        <time>2013-01-27T09:17:29Z</time>
      </trkpt>
      <trkpt lat="45.55634" lon="0.70092">
        <ele>252</ele>
        <time>2013-01-27T09:17:31Z</time>
      </trkpt>
      <trkpt lat="45.55633" lon="0.70081">
        <ele>255</ele>
        <time>2013-01-27T09:17:35Z</time>
      </trkpt>
      <trkpt lat="45.55633" lon="0.70078">
        <ele>255</ele>
        <time>2013-01-27T09:17:36Z</time>
      </trkpt>
      <trkpt lat="45.5563" lon="0.70058">
        <ele>255</ele>
        <time>2013-01-27T09:17:42Z</time>
      </trkpt>
      <trkpt lat="45.55617" lon="0.70033">
        <ele>257</ele>
        <time>2013-01-27T09:17:53Z</time>
      </trkpt>
      <trkpt lat="45.55597" lon="0.69998">
        <ele>260</ele>
        <time>2013-01-27T09:18:06Z</time>
      </trkpt>
      <trkpt lat="45.55588" lon="0.69989">
        <ele>260</ele>
        <time>2013-01-27T09:18:12Z</time>
      </trkpt>
      <trkpt lat="45.55578" lon="0.69986">
        <ele>263</ele>
        <time>2013-01-27T09:18:17Z</time>
      </trkpt>
      <trkpt lat="45.5556" lon="0.69982">
        <ele>264</ele>
        <time>2013-01-27T09:18:24Z</time>
      </trkpt>
      <trkpt lat="45.55531" lon="0.69963">
        <ele>265</ele>
        <time>2013-01-27T09:18:35Z</time>
      </trkpt>
      <trkpt lat="45.55529" lon="0.69949">
        <ele>265</ele>
        <time>2013-01-27T09:18:41Z</time>
      </trkpt>
      <trkpt lat="45.55534" lon="0.69943">
        <ele>265</ele>
        <time>2013-01-27T09:18:45Z</time>
      </trkpt>
      <trkpt lat="45.55538" lon="0.69938">
        <ele>264</ele>
        <time>2013-01-27T09:18:49Z</time>
      </trkpt>
      <trkpt lat="45.55545" lon="0.69922">
        <ele>263</ele>
        <time>2013-01-27T09:18:56Z</time>
      </trkpt>
      <trkpt lat="45.55543" lon="0.6991">
        <ele>262</ele>
        <time>2013-01-27T09:19:01Z</time>
      </trkpt>
      <trkpt lat="45.55522" lon="0.69889">
        <ele>263</ele>
        <time>2013-01-27T09:19:14Z</time>
      </trkpt>
      <trkpt lat="45.55492" lon="0.6987">
        <ele>268</ele>
        <time>2013-01-27T09:19:27Z</time>
      </trkpt>
      <trkpt lat="45.5546" lon="0.69858">
        <ele>269</ele>
        <time>2013-01-27T09:19:38Z</time>
      </trkpt>
      <trkpt lat="45.55431" lon="0.69849">
        <ele>270</ele>
        <time>2013-01-27T09:19:47Z</time>
      </trkpt>
      <trkpt lat="45.5542" lon="0.69849">
        <ele>270</ele>
        <time>2013-01-27T09:19:51Z</time>
      </trkpt>
      <trkpt lat="45.55406" lon="0.69853">
        <ele>273</ele>
        <time>2013-01-27T09:19:54Z</time>
      </trkpt>
      <trkpt lat="45.55394" lon="0.6984">
        <ele>274</ele>
        <time>2013-01-27T09:19:59Z</time>
      </trkpt>
      <trkpt lat="45.55394" lon="0.69801">
        <ele>273</ele>
        <time>2013-01-27T09:20:11Z</time>
      </trkpt>
      <trkpt lat="45.55391" lon="0.69797">
        <ele>273</ele>
        <time>2013-01-27T09:20:13Z</time>
      </trkpt>
      <trkpt lat="45.55369" lon="0.69759">
        <ele>274</ele>
        <time>2013-01-27T09:20:24Z</time>
      </trkpt>
      <trkpt lat="45.55349" lon="0.69737">
        <ele>275</ele>
        <time>2013-01-27T09:20:33Z</time>
      </trkpt>
      <trkpt lat="45.55328" lon="0.69708">
        <ele>275</ele>
        <time>2013-01-27T09:20:44Z</time>
      </trkpt>
      <trkpt lat="45.55324" lon="0.69701">
        <ele>275</ele>
        <time>2013-01-27T09:20:47Z</time>
      </trkpt>
      <trkpt lat="45.55326" lon="0.69695">
        <ele>275</ele>
        <time>2013-01-27T09:21:02Z</time>
      </trkpt>
      <trkpt lat="45.55327" lon="0.69693">
        <ele>275</ele>
        <time>2013-01-27T09:21:25Z</time>
      </trkpt>
      <trkpt lat="45.5533" lon="0.69693">
        <ele>275</ele>
        <time>2013-01-27T09:21:46Z</time>
      </trkpt>
      <trkpt lat="45.5533" lon="0.69693">
        <ele>275</ele>
        <time>2013-01-27T09:21:47Z</time>
      </trkpt>
      <trkpt lat="45.55333" lon="0.69687">
        <ele>275</ele>
        <time>2013-01-27T09:21:50Z</time>
      </trkpt>
      <trkpt lat="45.55335" lon="0.69685">
        <ele>274</ele>
        <time>2013-01-27T09:21:51Z</time>
      </trkpt>
      <trkpt lat="45.55336" lon="0.69683">
        <ele>274</ele>
        <time>2013-01-27T09:21:52Z</time>
      </trkpt>
      <trkpt lat="45.55338" lon="0.69681">
        <ele>274</ele>
        <time>2013-01-27T09:21:53Z</time>
      </trkpt>
      <trkpt lat="45.5534" lon="0.69678">
        <ele>274</ele>
        <time>2013-01-27T09:21:54Z</time>
      </trkpt>
      <trkpt lat="45.55342" lon="0.69675">
        <ele>274</ele>
        <time>2013-01-27T09:21:55Z</time>
      </trkpt>
      <trkpt lat="45.55344" lon="0.69673">
        <ele>274</ele>
        <time>2013-01-27T09:21:56Z</time>
      </trkpt>
      <trkpt lat="45.55347" lon="0.6967">
        <ele>274</ele>
        <time>2013-01-27T09:21:57Z</time>
      </trkpt>
      <trkpt lat="45.55381" lon="0.69643">
        <ele>273</ele>
        <time>2013-01-27T09:22:10Z</time>
      </trkpt>
      <trkpt lat="45.55405" lon="0.69625">
        <ele>273</ele>
        <time>2013-01-27T09:22:20Z</time>
      </trkpt>
      <trkpt lat="45.55424" lon="0.69609">
        <ele>274</ele>
        <time>2013-01-27T09:22:28Z</time>
      </trkpt>
      <trkpt lat="45.55464" lon="0.69576">
        <ele>275</ele>
        <time>2013-01-27T09:22:41Z</time>
      </trkpt>
      <trkpt lat="45.55472" lon="0.69573">
        <ele>275</ele>
        <time>2013-01-27T09:22:44Z</time>
      </trkpt>
      <trkpt lat="45.55474" lon="0.69575">
        <ele>275</ele>
        <time>2013-01-27T09:22:45Z</time>
      </trkpt>
      <trkpt lat="45.55477" lon="0.69577">
        <ele>275</ele>
        <time>2013-01-27T09:22:46Z</time>
      </trkpt>
      <trkpt lat="45.5549" lon="0.69588">
        <ele>274</ele>
        <time>2013-01-27T09:22:50Z</time>
      </trkpt>
      <trkpt lat="45.55509" lon="0.69619">
        <ele>274</ele>
        <time>2013-01-27T09:22:57Z</time>
      </trkpt>
      <trkpt lat="45.55534" lon="0.69673">
        <ele>269</ele>
        <time>2013-01-27T09:23:07Z</time>
      </trkpt>
      <trkpt lat="45.55545" lon="0.69702">
        <ele>269</ele>
        <time>2013-01-27T09:23:11Z</time>
      </trkpt>
      <trkpt lat="45.55557" lon="0.6973">
        <ele>267</ele>
        <time>2013-01-27T09:23:15Z</time>
      </trkpt>
      <trkpt lat="45.55576" lon="0.69737">
        <ele>266</ele>
        <time>2013-01-27T09:23:20Z</time>
      </trkpt>
      <trkpt lat="45.55585" lon="0.69728">
        <ele>268</ele>
        <time>2013-01-27T09:23:22Z</time>
      </trkpt>
      <trkpt lat="45.55606" lon="0.69731">
        <ele>268</ele>
        <time>2013-01-27T09:23:28Z</time>
      </trkpt>
      <trkpt lat="45.55606" lon="0.69736">
        <ele>268</ele>
        <time>2013-01-27T09:23:29Z</time>
      </trkpt>
      <trkpt lat="45.55607" lon="0.69762">
        <ele>264</ele>
        <time>2013-01-27T09:23:33Z</time>
      </trkpt>
      <trkpt lat="45.55621" lon="0.69807">
        <ele>262</ele>
        <time>2013-01-27T09:23:42Z</time>
      </trkpt>
      <trkpt lat="45.55623" lon="0.69812">
        <ele>262</ele>
        <time>2013-01-27T09:23:43Z</time>
      </trkpt>
      <trkpt lat="45.55627" lon="0.69822">
        <ele>262</ele>
        <time>2013-01-27T09:23:45Z</time>
      </trkpt>
      <trkpt lat="45.55639" lon="0.6984">
        <ele>259</ele>
        <time>2013-01-27T09:23:52Z</time>
      </trkpt>
      <trkpt lat="45.55647" lon="0.69845">
        <ele>260</ele>
        <time>2013-01-27T09:23:56Z</time>
      </trkpt>
      <trkpt lat="45.55679" lon="0.69854">
        <ele>262</ele>
        <time>2013-01-27T09:24:08Z</time>
      </trkpt>
      <trkpt lat="45.55703" lon="0.69866">
        <ele>261</ele>
        <time>2013-01-27T09:24:20Z</time>
      </trkpt>
      <trkpt lat="45.55717" lon="0.69869">
        <ele>261</ele>
        <time>2013-01-27T09:24:23Z</time>
      </trkpt>
      <trkpt lat="45.55729" lon="0.69871">
        <ele>261</ele>
        <time>2013-01-27T09:24:25Z</time>
      </trkpt>
      <trkpt lat="45.55741" lon="0.69878">
        <ele>261</ele>
        <time>2013-01-27T09:24:29Z</time>
      </trkpt>
      <trkpt lat="45.55744" lon="0.6988">
        <ele>261</ele>
        <time>2013-01-27T09:24:30Z</time>
      </trkpt>
      <trkpt lat="45.55755" lon="0.69888">
        <ele>263</ele>
        <time>2013-01-27T09:24:35Z</time>
      </trkpt>
      <trkpt lat="45.55783" lon="0.69895">
        <ele>264</ele>
        <time>2013-01-27T09:24:44Z</time>
      </trkpt>
      <trkpt lat="45.55789" lon="0.69897">
        <ele>264</ele>
        <time>2013-01-27T09:24:46Z</time>
      </trkpt>
      <trkpt lat="45.55807" lon="0.699">
        <ele>265</ele>
        <time>2013-01-27T09:24:52Z</time>
      </trkpt>
      <trkpt lat="45.55844" lon="0.69901">
        <ele>267</ele>
        <time>2013-01-27T09:25:04Z</time>
      </trkpt>
      <trkpt lat="45.55849" lon="0.69902">
        <ele>267</ele>
        <time>2013-01-27T09:25:16Z</time>
      </trkpt>
      <trkpt lat="45.55847" lon="0.69901">
        <ele>267</ele>
        <time>2013-01-27T09:25:25Z</time>
      </trkpt>
      <trkpt lat="45.55827" lon="0.69915">
        <ele>266</ele>
        <time>2013-01-27T09:25:36Z</time>
      </trkpt>
      <trkpt lat="45.55824" lon="0.69923">
        <ele>263</ele>
        <time>2013-01-27T09:25:39Z</time>
      </trkpt>
      <trkpt lat="45.55822" lon="0.69927">
        <ele>263</ele>
        <time>2013-01-27T09:25:41Z</time>
      </trkpt>
      <trkpt lat="45.55818" lon="0.69931">
        <ele>262</ele>
        <time>2013-01-27T09:25:43Z</time>
      </trkpt>
      <trkpt lat="45.55803" lon="0.69939">
        <ele>260</ele>
        <time>2013-01-27T09:25:52Z</time>
      </trkpt>
      <trkpt lat="45.55802" lon="0.69928">
        <ele>261</ele>
        <time>2013-01-27T09:26:01Z</time>
      </trkpt>
      <trkpt lat="45.55803" lon="0.69924">
        <ele>261</ele>
        <time>2013-01-27T09:26:05Z</time>
      </trkpt>
      <trkpt lat="45.55788" lon="0.69921">
        <ele>260</ele>
        <time>2013-01-27T09:26:14Z</time>
      </trkpt>
      <trkpt lat="45.55787" lon="0.69921">
        <ele>260</ele>
        <time>2013-01-27T09:26:15Z</time>
      </trkpt>
      <trkpt lat="45.55783" lon="0.69918">
        <ele>259</ele>
        <time>2013-01-27T09:26:20Z</time>
      </trkpt>
      <trkpt lat="45.55779" lon="0.69911">
        <ele>263</ele>
        <time>2013-01-27T09:26:25Z</time>
      </trkpt>
      <trkpt lat="45.55765" lon="0.69919">
        <ele>258</ele>
        <time>2013-01-27T09:26:33Z</time>
      </trkpt>
      <trkpt lat="45.55762" lon="0.69926">
        <ele>258</ele>
        <time>2013-01-27T09:26:36Z</time>
      </trkpt>
      <trkpt lat="45.55767" lon="0.69944">
        <ele>258</ele>
        <time>2013-01-27T09:26:49Z</time>
      </trkpt>
      <trkpt lat="45.5578" lon="0.69963">
        <ele>258</ele>
        <time>2013-01-27T09:26:59Z</time>
      </trkpt>
      <trkpt lat="45.55791" lon="0.69972">
        <ele>259</ele>
        <time>2013-01-27T09:27:06Z</time>
      </trkpt>
      <trkpt lat="45.55802" lon="0.69977">
        <ele>259</ele>
        <time>2013-01-27T09:27:12Z</time>
      </trkpt>
      <trkpt lat="45.55829" lon="0.69975">
        <ele>261</ele>
        <time>2013-01-27T09:27:22Z</time>
      </trkpt>
      <trkpt lat="45.55849" lon="0.69985">
        <ele>263</ele>
        <time>2013-01-27T09:27:31Z</time>
      </trkpt>
      <trkpt lat="45.55868" lon="0.70013">
        <ele>262</ele>
        <time>2013-01-27T09:27:41Z</time>
      </trkpt>
      <trkpt lat="45.55905" lon="0.70018">
        <ele>263</ele>
        <time>2013-01-27T09:27:53Z</time>
      </trkpt>
      <trkpt lat="45.55941" lon="0.70018">
        <ele>265</ele>
        <time>2013-01-27T09:28:05Z</time>
      </trkpt>
      <trkpt lat="45.55894" lon="0.69889">
        <ele>268</ele>
      </trkpt>
      <trkpt lat="45.55716" lon="0.69283">
        <ele>280</ele>
      </trkpt>
      <trkpt lat="45.55496" lon="0.69024">
        <ele>269</ele>
      </trkpt>
    </trkseg>
  </trk>
</gpx>